Location: Saluda
(35.2377°N, 82.3468°W)
Time: 20:07:16
(UTC+00:00)

Vanguard 3 - Pass Details

Date: 06 October 2022
Orbit: 509 x 3255 km, 33.3° (Epoch: 01 December)

Event Time Altitude Azimuth Distance (km) Brightness Sun altitude
Rises 11:58:30 0° 227° (SW) 2,677 9.5 5.3°
Reaches altitude 10° 12:00:59 10° 213° (SSW) 1,717 8.6 5.8°
Maximum altitude 12:04:03 25° 156° (SSE) 1,066 8.4 6.4°
Drops below altitude 10° 12:07:23 10° 99° (E) 1,878 12.5 7.1°
Sets 12:10:14 0° 86° (E) 2,999 11.8 7.6°
